Kazan, Russia

5:29 AM MSK on December 16, 2019 (GMT +0300)
Kazan

Weather History for UWKD - October, 2019

Change the Weather History Date:

Sunday, October 6, 2019

  Actual Average (WUND) Record (WUND)
Temperature  
Mean Temperature 54 °F -  
Max Temperature 63 °F - - (-1)
Min Temperature 45 °F - - (-1)
Degree Days  
Heating Degree Days 11    
Growing Degree Days 4 (Base 50)    
Moisture  
Dew Point 40 °F    
Average Humidity 66    
Maximum Humidity 100    
Minimum Humidity 15    
Precipitation  
Precipitation 0.00 in - - ()
Sea Level Pressure  
Sea Level Pressure 29.82 in    
Wind  
Wind Speed 9 mph ()    
Max Wind Speed 16 mph    
Max Gust Speed 25 mph    
Visibility 6.0 miles    
Events Rain    
Averages and records for this station are not official NWS values.
T = Trace of Precipitation, MM = Missing Value Source: Averaged Metar Reports

Daily Weather History Graph

Daily Weather History Graph

Search for Another Location

Airport or City:

Astronomy

Oct. 06, 2019 Rise Set
Actual Time 5:54 AM MSK 5:06 PM MSK
Civil Twilight 5:17 AM MSK 5:43 PM MSK
Nautical Twilight 4:34 AM MSK 6:26 PM MSK
Astronomical Twilight 3:51 AM MSK 7:09 PM MSK
Moon 2:48 PM MSK (10/6) 10:07 PM MSK (10/6)
Length of Visible Light 12h 25m
Length of Day
11h 12m
First Quarter, 57% of the Moon is Illuminated
Oct 6
First Quarter
Oct 14
Full
Oct 21
Last Quarter
Oct 28
New
Nov 4
First Quarter

Hourly Weather History & Observations

Time (MSK) Temp. Windchill Dew Point Humidity Pressure Visibility Wind Dir Wind Speed Gust Speed Precip Events Conditions
12:00 AM 47 °F - 46 °F 95% 29.94 in 6 mi North 4.5 mph - -   Partly Cloudy
12:00 AM 46.4 °F 41.2 °F 44.6 °F 93% 29.89 in 6.2 mi North 11.2 mph - N/A   Mostly Cloudy
12:30 AM 46.4 °F 42.0 °F 44.6 °F 93% 29.92 in 6.2 mi NNE 8.9 mph - N/A   Mostly Cloudy
1:00 AM 46.4 °F 42.0 °F 42.8 °F 87% 29.92 in 6.2 mi NNE 8.9 mph - N/A   Mostly Cloudy
1:30 AM 46.4 °F 41.2 °F 42.8 °F 87% 29.92 in 6.2 mi NNE 11.2 mph - N/A   Mostly Cloudy
2:00 AM 46.4 °F 42.0 °F 42.8 °F 87% 29.92 in 6.2 mi NNE 8.9 mph - N/A   Mostly Cloudy
2:30 AM 46.4 °F 41.2 °F 42.8 °F 87% 29.92 in 6.2 mi NNE 11.2 mph - N/A   Mostly Cloudy
3:00 AM 45 °F - 45 °F 98% 29.95 in 6 mi NE 2.2 mph - -   Partly Cloudy
3:00 AM 46.4 °F 41.2 °F 42.8 °F 87% 29.92 in 6.2 mi NNE 11.2 mph - N/A   Mostly Cloudy
3:30 AM 46.4 °F 42.0 °F 42.8 °F 87% 29.92 in 6.2 mi NE 8.9 mph - N/A   Mostly Cloudy
4:00 AM 46.4 °F 41.2 °F 42.8 °F 87% 29.92 in 6.2 mi NE 11.2 mph - N/A   Mostly Cloudy
4:30 AM 46.4 °F 41.2 °F 42.8 °F 87% 29.89 in 6.2 mi NE 11.2 mph - N/A   Mostly Cloudy
5:00 AM 46.4 °F 41.2 °F 42.8 °F 87% 29.89 in 6.2 mi NE 11.2 mph - N/A   Mostly Cloudy
6:00 AM 45 °F - 45 °F 99% 29.91 in 6 mi ENE 4.5 mph - -   Overcast
6:00 AM 46.4 °F 41.2 °F 42.8 °F 87% 29.89 in 6.2 mi ENE 11.2 mph - N/A   Overcast
6:30 AM 46.4 °F 41.2 °F 44.6 °F 93% 29.89 in 6.2 mi ENE 11.2 mph - N/A   Overcast
7:00 AM 46.4 °F 41.2 °F 44.6 °F 93% 29.86 in 3.7 mi ENE 11.2 mph - N/A   Overcast
7:30 AM 46.4 °F 40.5 °F 44.6 °F 93% 29.86 in 5.6 mi East 13.4 mph - N/A   Overcast
8:30 AM 48.2 °F - 46.4 °F 93% 29.86 in 6.2 mi East 6.7 mph - N/A Rain Light Rain
9:00 AM 47 °F - 47 °F 100% 29.89 in 6 mi East 4.5 mph - - Rain Light Rain
9:00 AM 48.2 °F - 46.4 °F 93% 29.86 in 6.2 mi East 6.7 mph - N/A Rain Light Rain
9:30 AM 50.0 °F - 48.2 °F 94% 29.86 in 6.2 mi East 11.2 mph - N/A   Overcast
11:00 AM 55.4 °F - 48.2 °F 77% 29.83 in - ESE 13.4 mph - N/A   Clear
11:30 AM 57.2 °F - 50.0 °F 77% 29.80 in - ESE 13.4 mph - N/A   Clear
12:00 PM 58 °F - 49 °F 65% 29.82 in 6 mi ESE 6.7 mph - -   Partly Cloudy
12:00 PM 59.0 °F - 46.4 °F 63% 29.80 in - SE 13.4 mph - N/A   Clear
12:30 PM 60.8 °F - 42.8 °F 52% 29.80 in - SSE 13.4 mph - N/A   Clear
1:00 PM 62.6 °F - 39.2 °F 42% 29.77 in - SSE 13.4 mph - N/A   Clear
1:30 PM 62.6 °F - 39.2 °F 42% 29.77 in - SE 15.7 mph - N/A   Clear
2:00 PM 62.6 °F - 37.4 °F 39% 29.77 in - SE 13.4 mph - N/A   Clear
2:30 PM 62.6 °F - 39.2 °F 42% 29.77 in - SE 11.2 mph - N/A   Clear
3:00 PM 63 °F - 35 °F 24% 29.76 in 6 mi ESE 4.5 mph - -   Partly Cloudy
3:00 PM 60.8 °F - 37.4 °F 42% 29.74 in - SE 13.4 mph - N/A   Clear
3:30 PM 60.8 °F - 37.4 °F 42% 29.74 in - SE 13.4 mph - N/A   Clear
4:30 PM 57.2 °F - 35.6 °F 44% 29.71 in - SE 13.4 mph - N/A   Clear
5:00 PM 55.4 °F - 35.6 °F 47% 29.71 in - ESE 13.4 mph - N/A   Clear
5:30 PM 55.4 °F - 33.8 °F 44% 29.71 in - ESE 15.7 mph - N/A   Clear
6:00 PM 61 °F - 29 °F 18% 29.73 in 6 mi SE 6.7 mph - -   Overcast
6:30 PM 55.4 °F - 32.0 °F 41% 29.71 in - SE 15.7 mph - N/A   Clear
7:00 PM 55.4 °F - 33.8 °F 44% 29.71 in - SE 13.4 mph - N/A   Clear
7:30 PM 59.0 °F - 28.4 °F 31% 29.71 in - SE 15.7 mph - N/A   Clear
8:30 PM 59.0 °F - 28.4 °F 31% 29.68 in - SE 11.2 mph 22.4 mph N/A   Clear
9:00 PM 61 °F - 26 °F 15% 29.71 in 6 mi SE 8.9 mph - -   Mostly Cloudy
10:00 PM 57.2 °F - 28.4 °F 33% 29.68 in - SE 15.7 mph - N/A   Clear
10:30 PM 57.2 °F - 28.4 °F 33% 29.68 in - SE 13.4 mph 24.6 mph N/A   Clear
11:00 PM 57.2 °F - 28.4 °F 33% 29.68 in - SE 13.4 mph 24.6 mph N/A   Clear